User: anonymous   Login
Location: Unspecified
(0.0000°N, 0.0000°E)
Time: 12:02:31
(UTC+01:00)
Language:

Delta 2 Rocket - Orbit

View from above orbital plane
View from above orbital plane
View from above satellite
View from above satellite

Ground track
Ground track

The orbit data is extracted from the following two-line orbital elements,

1 20453U 90008B   15086.96635346  .00005674  00000-0  34323-3 0  9993
2 20453 035.6285 307.5880 0309640 273.6952 082.8407 14.77917093327719
Epoch (UTC): 27 March 2015 23:11:32
Eccentricity: 0.0309640
inclination: 35.6285°
perigee height: 419 km
apogee height: 853 km
right ascension of ascending node: 307.5880°
argument of perigee: 273.6952°
revolutions per day: 14.77917093
mean anomaly at epoch: 82.8407°
orbit number at epoch: 32771

The dashed part of the orbit path shows where the satellite is in the earth's shadow,  

DLR